Location: Newark
(17.9939°S, 31.0481°E)
Time: 04:19:54
(UTC+00:00)

Courier 1B - Pass Details

Date: 14 November 2019
Orbit: 963 x 1209 km, 28.3° (Epoch: 08 December)

Event Time Altitude Azimuth Distance (km) Brightness Sun altitude
Rises 18:27:20 0° 263° (W) 4,055 11.6 -30.3°
Reaches altitude 10° 18:30:21 10° 256° (WSW) 3,117 10.9 -30.9°
Maximum altitude 18:37:38 41° 187° (S) 1,677 8.9 -32.3°
Enters shadow 18:41:06 28° 139° (SE) 2,098 9.1 -32.9°
